Location: Bothwell
(41.7170°N, 112.2589°W)
Time: 02:46:15
(UTC+00:00)

Tiros 1 - Pass Details

Date: 19 May 2026
Orbit: 618 x 649 km, 48.4° (Epoch: 6 June)

Event Time Altitude Azimuth Distance (km) Brightness Sun altitude
Rises 08:40:14 0° 287° (WNW) 2,915 - -26.1°
Exits shadow 08:40:50 - 289° (WNW) 2,694 10.3 -26.1°
Reaches altitude 10° 08:42:44 10° 297° (WNW) 2,002 9.7 -25.9°
Maximum altitude 08:46:58 35° 4° (N) 1,002 8.6 -25.7°
Drops below altitude 10° 08:51:11 10° 71° (ENE) 1,986 10.1 -25.4°
Sets 08:53:39 0° 80° (E) 2,888 10.9 -25.2°
